Meath Environmental Platform

Observations for Trim Patrick St

Time AQI Temp °C Hum % Pres Pa CO μg/m³ H₂S μg/m³ NO μg/m³ NO₂ μg/m³ O₃ μg/m³ SO₂ μg/m³ PM1 μg/m³ PM2.5 μg/m³ PM10 μg/m³
Sunday 2 August 2026
09:31 2 21.5 59 76,775 0.09 0 2.04 11.09 46.15 2.77 3.71 10.28 11.31
09:30 2 21.5 60 76,963 0.09 0 2.02 13.39 46.18 2.62 3.71 9.52 10.48
09:29 2 21.4 60 77,117 0.08 0 2.04 12.08 44.65 2.33 3.71 9.52 10.47
09:28 2 21.3 60 77,315 0.08 0 1.91 11.63 44.75 2.32 4.57 9.5 10.45
09:27 2 21.2 60 77,510 0.08 0 2.03 10.45 44.16 2.14 4.57 10.23 11.25
09:26 2 21.2 60 77,699 0.08 0 2.03 11.83 43.84 2.23 3.71 10.21 11.23
09:25 2 21.1 61 77,872 0.09 0 2.27 14.27 43.06 2.48 4.57 10.18 11.19
09:24 2 21 61 77,896 0.08 0 2.07 17.44 44.45 2.84 5.43 11.66 12.82
09:23 2 21 61 77,884 0.08 0 2.56 14.12 42.88 2.69 5.43 10.93 12.02
09:22 2 20.9 60 77,897 0.09 0 2.29 12.98 43.16 2.53 3.71 10.2 11.22
09:21 2 20.9 61 78,000 0.1 0 1.82 11.1 44.77 2.33 2 7.23 7.95
09:20 2 20.8 61 78,100 0.07 0 1.84 11.39 44.07 2.09 5.43 10.93 12.02
09:19 2 20.8 61 78,198 0.06 0 1.88 11.65 42.95 2.41 4.57 11.66 12.82
09:17 2 20.7 61 78,427 0.08 0 1.8 11.54 44.94 2.49 6.29 11.63 12.8
09:16 2 20.7 61 78,605 0.07 0 2.3 11.53 42.04 2.57 2.86 8.66 9.52
09:14 2 20.6 61 78,877 0.06 0 2.13 11.07 43.79 2.69 2.86 7.91 8.7
09:13 2 20.6 62 79,028 0.09 0 2.28 11.81 41.8 2.77 6.29 11.59 12.75
09:12 2 20.5 62 79,091 0.09 0 2.01 11.81 41.99 2.49 4.57 10.85 11.94
09:09 2 20.4 62 79,365 0.09 0 2.35 12.13 40.22 2.54 4.57 10.08 11.09
09:08 2 20.4 62 79,373 0.11 0 1.84 13.68 40.12 2.47 6.29 11.55 12.71